ABY132 OMSJ-OTHH

Flight info

Callsign ABY132
Flight time N/A
Altitude 34000
Route ANVIX R401 GIDIS G783 VAVIM DCT ESROM DCT RIBOT M550 ODBUK Y432 LADBO T142 LAEEB
Aircraft A320/M-SDE3FGHIRWY/LB1

Departure

Time 2026-04-24 18:55
Airport Sharjah International Airport (OMSJ)

Arrival

Time N/A
Airport Hamad International Airport (OTHH)
Time Latitude Longitude Altitude Speed Heading
2026-04-24 18:54 25.30274 55.36500 6921 ft 290 kts 162°
2026-04-24 18:55 25.26496 55.37946 7696 ft 292 kts 159°
2026-04-24 18:55 25.24759 55.39123 8467 ft 296 kts 140°
2026-04-24 18:55 25.23219 55.40642 9248 ft 298 kts 140°
2026-04-24 18:56 25.21680 55.42192 9997 ft 300 kts 139°
2026-04-24 18:56 25.20108 55.43786 10401 ft 317 kts 139°
2026-04-24 18:56 25.18427 55.45485 10569 ft 339 kts 139°
2026-04-24 18:56 25.16651 55.47276 10989 ft 350 kts 139°
2026-04-24 18:57 25.14840 55.49103 11597 ft 355 kts 139°
2026-04-24 18:57 25.13007 55.50954 12230 ft 359 kts 139°
2026-04-24 18:57 25.11152 55.52827 12861 ft 363 kts 139°
2026-04-24 18:57 25.09277 55.54713 13481 ft 366 kts 139°
2026-04-24 18:58 25.07384 55.56616 14056 ft 370 kts 139°
2026-04-24 18:58 25.05497 55.58511 14587 ft 374 kts 139°
2026-04-24 18:58 25.03560 55.60458 15062 ft 378 kts 139°
2026-04-24 18:58 25.01607 55.62419 15626 ft 381 kts 139°
2026-04-24 18:59 24.99632 55.64400 16159 ft 385 kts 139°
2026-04-24 18:59 24.98315 55.65720 16522 ft 387 kts 139°
2026-04-24 18:59 24.96311 55.67727 17061 ft 391 kts 139°
2026-04-24 18:59 24.93720 55.70577 17757 ft 397 kts 129°
2026-04-24 19:00 24.92077 55.73026 18251 ft 401 kts 126°
2026-04-24 19:00 24.90969 55.74706 18570 ft 403 kts 127°
2026-04-24 19:00 24.88778 55.78041 19187 ft 407 kts 127°
2026-04-24 19:00 24.87113 55.80571 19644 ft 410 kts 127°
2026-04-24 19:01 24.85433 55.83118 20101 ft 413 kts 127°
2026-04-24 19:01 24.83740 55.85678 20554 ft 415 kts 127°
2026-04-24 19:01 24.81999 55.88222 20990 ft 417 kts 132°
2026-04-24 19:01 24.80627 55.89767 21285 ft 417 kts 141°
2026-04-24 19:02 24.79104 55.91052 21582 ft 417 kts 149°
2026-04-24 19:02 24.78270 55.91614 21736 ft 416 kts 153°
2026-04-24 19:02 24.73779 55.93397 22481 ft 413 kts 173°